P/2003 O2 (LINEAR)                                                    

Epoch 2003 Aug. 29.0 TT = JDT 2452880.5  

T 2003 Sept. 5.80934 TT                                 Nakano

q   1.5054475            (2000.0)            P               Q

n   0.11236250     Peri.   32.72089     +0.94941346     -0.30682578

a   4.2532587      Node   344.71107     +0.20468261     +0.76613138

e   0.6460484      Incl.   14.69115     +0.23815775     +0.56471289

P   8.77 (+/- 0.03 day)

From 489 observations 2003 July 29-Dec. 15, mean residual 0".73.

Residuals in seconds of arc 

2003/                     030823 704 (3.7-  0.1+)   030921 108  0.2+  0.7+  

030729 704 (2.5-  1.1-)   030823 704 (2.3-  0.3+)   030921 108  0.3-  0.3+  

030729 704 (2.6-  0.7-)   030823 704 (2.0-  0.4+)   030921 108  0.6+  1.5-  

030729 704 (3.3-  2.4-)   030823 349  1.2-  0.8-    030921 212  0.9+  0.2-  

030729 704  1.4-  0.8-    030823 349  0.8+  0.8+    030921 108  1.3-  0.1-  

030729 704 (7.7-  2.3-)   030823 349  0.2-  0.4-    030921 A46  0.2-  0.6+  

030730 620  0.4-  0.2+    030823 349  0.8-  0.6+    030921 A46  0.4+  1.0+  

030730 620  0.5-  0.1+    030823 349  0.0   0.5-    030921 A46  0.4+  0.7+  

030730 620  0.2-  0.4+    030824 A46  0.5-  0.8-    030921 A46  0.5-  0.9+  

030730 704 (8.3-  1.3-)   030824 A46 (3.4-  1.5-)   030921 A46  0.2+  0.1+  

030730 649  0.4-  0.3+    030824 A46  0.3-  0.6-    030921 A46  0.2+  0.2-  

030730 649  0.1+  0.3+    030824 A46  0.9-  0.3-    030922 349  0.2+  0.1+  

030730 704  1.1-  0.1-    030824 A46  1.0-  0.5+    030922 349  0.1+  0.1-  

030730 704  0.6-  0.2+    030824 213 (2.2-  0.1-)   030922 349  0.6+  0.1+  

030730 704  0.6-  0.3-    030824 213  1.2-  0.1-    030922 349  0.0   0.0   

030730 649  0.4-  0.1-    030824 213  0.0   0.6-    030922 349  0.1+  0.1+  

030730 704  1.1-  0.9-    030824 246  0.1-  0.1+    030924 785  1.5-  1.3-  

030730 649  0.5-  0.1+    030824 246  0.4-  0.0     030924 785  0.2+  0.3+  

030730 704 (2.8-  1.4-)   030824 246  0.3-  0.0     030925 A46  0.4+  1.0+  

030730 704  1.8-  1.0-    030824 246  0.2-  0.0     030925 A46  0.1+  0.0   

030730 704  1.7-  1.1-    030824 246  0.5-  0.2+    030925 A46  0.4+  0.5+  

030730 704 (2.5-  1.3-)   030824 246  0.5-  0.2-    030925 A46  0.2+  0.5+  

030730 704 (2.1-  0.9-)   030824 859  0.2-  0.2+    030925 A46  0.5+  0.7+  

030730 704 (6.4-  3.3-)   030824 859  1.5-  0.0     030925 A46  0.6+  0.2+  

030730 704 (2.8-  2.0-)   030824 859  0.2+  0.7-    030925 235  1.9+  1.2+  

030730 704 (4.4-  1.6-)   030824 704  1.7-  0.9-    030925 H44  0.8-  0.3-  

030730 704 (7.8-  2.9-)   030824 704 (5.5-  2.6-)   030925 H44  0.5-  0.2+  

030730 704 (8.3-  2.7-)   030824 704 (4.8-  1.7-)   030925 850  0.8+  0.7+  

030731 J95  0.8+  0.8+    030824 704 (4.3-  2.0-)   030925 850  1.1-  0.3-  

030731 J95  0.9+  0.5+    030824 704 (6.3-  2.9-)   030925 H41  0.2-  0.4+  

030731 J95  1.7+  0.9+    030825 A46  0.1-  0.6-    030925 A41  0.1+  0.2-  

030731 649  0.7-  1.4+    030825 A46  0.2+  0.9-    030925 A41  0.8-  0.4-  

030731 649  0.3+  1.3+    030825 A46  0.1-  0.6-    030926 H41  0.2-  0.2+  

030731 649  1.6+  1.3+    030825 A46  0.6-  0.1-    030926 H41  0.8+  0.7-  

030731 649 (2.7-  0.0 )   030825 A46  0.0   1.0-    030926 340  0.2-  0.1-  

030801 A32  0.0   0.4+    030825 A46  1.0-  1.2-    030926 340  1.2-  1.5-  

030801 A32  1.7-  0.5-    030825 A32  0.5+  0.1+    030926 340  1.0+  0.1-  

030801 A32 (2.1-  0.4-)   030825 A32  0.4+  0.2+    030926 342  0.1+  1.4-  

030801 A32  1.3-  0.7-    030825 A32  0.4+  0.3+    030926 342  0.1-  0.3-  

030801 A32  1.1-  1.0-    030825 A32  0.1-  0.0     030926 360  0.8+  0.3+  

030801 204  0.4-  0.4+    030825 A32  0.1+  0.1+    030926 360  0.8+  0.2+  

030801 204 (2.5+  1.1+)   030826 850 (3.7-  1.2-)   030926 A46  0.1+  0.4+  

030801 H41 (2.6+  1.5+)   030826 850  0.6-  0.3+    030926 A46  0.8+  0.2-  

030801 H41 (1.9+  2.4+)   030827 A46  1.1+  0.2-    030926 A46  0.6+  0.3-  

030801 H41 (2.5+  1.3+)   030827 A46  1.2+  0.7+    030926 A46  0.1+  0.4-  

030801 704  0.9-  0.4-    030827 A46  0.2+  1.1+    030926 A46  0.5+  0.1+  

030801 704  0.1-  1.5-    030827 A46  0.2+  0.4-    030926 A46  0.1+  0.2-  

030801 704 (3.5-  1.8-)   030827 A46  0.2-  0.3+    030928 H44  0.6+  0.1+  

030801 704 (2.5-  0.8-)   030827 A46  1.2-  0.2+    030928 H41  0.0   0.6-  

030801 704 (3.4-  2.8-)   030827 213 (0.3-  2.2-)   030928 H41  0.2-  0.8-  

030801 704 (2.9-  2.0-)   030827 213  0.1+  0.5+    030928 H44  0.6+  0.2+  

030801 704 (4.8-  2.0-)   030827 213  0.9+  0.4+    030929 785 (0.1+  3.1+) 

030801 704 (2.7-  2.4-)   030828 785  0.4+  1.0-    030929 785 (1.9+  2.1+) 

030801 704 (3.0-  0.7-)   030828 785  1.8+  0.2+    030929 785  1.0+  1.0+  

030801 704 (5.7-  1.9-)   030830 939  1.7-  0.8-    030929 349  0.5-  0.0   

030801 704 (5.0-  2.3-)   030830 939  0.1-  0.7+    030929 349  0.7-  1.1-  

030801 704 (5.0-  0.9-)   030830 939  1.0+  1.1+    030929 349  0.7-  0.9-  

030802 235  0.1+  1.2+    030830 213  0.2-  0.5-    030929 349  0.3-  0.4-  

030802 J95  0.6+  1.0+    030830 213  1.1-  0.5-    030930 355  0.5-  0.2-  

030802 J95  1.0+  0.7+    030830 213  0.1-  0.2+    030930 355  0.4+  0.5-  

030802 J95  0.4+  0.5+    030831 939  1.5-  1.2-    030930 355  0.7-  0.6-  

030802 170  0.4-  1.0+    030831 939  1.5-  1.7-    030930 349  0.5-  0.2-  

030802 170  0.2+  0.1+    030831 130  0.3+  0.8+    030930 349  0.0   0.2-  

030802 170  1.8-  0.2-    030831 939  0.3-  1.9-    030930 349  0.7-  0.1-  

030802 108(10.3-  1.6-)   030831 232  1.7-  0.6+    030930 349  0.2-  0.5-  

030802 108  1.2-  1.1+    030831 232  0.3-  0.2-    030930 349  0.1+  0.4-  

030802 108  1.5-  0.2-    030831 130  0.2+  0.6-    031002 704 (2.0-  1.6-) 

030802 108 (3.6+  2.5+)   030831 170  0.7+  0.3-    031002 704 (0.7-  2.0-) 

030802 H41 (3.7+  1.1+)   030831 170  0.0   0.4+    031002 704 (2.3+  0.1-) 

030802 H41  0.3+  0.0     030831 J95  0.8+  0.0     031002 704 (3.5-  1.9-) 

030802 H41  0.3-  0.5-    030831 J95  1.1+  0.2+    031002 704  0.5-  0.1-  

030802 850  0.7+  0.1-    030831 J95  1.1+  0.2+    031003 785  0.5-  1.5+  

030802 850  0.3-  0.2-    030901 342  1.2+  0.5+    031003 785  0.4-  0.6-  

030802 850 (3.0-  2.0-)   030901 342  0.0   0.2+    031004 355  1.3-  0.3-  

030802 342  0.3-  0.8-    030903 360  0.6+  0.1+    031004 355  1.1-  0.4-  

030802 342  1.0+  0.0     030903 360  1.1+  0.6+    031005 213  0.4+  0.3+  

030802 342 (0.0   2.0+)   030903 360  1.0+  0.4+    031005 213  0.7-  1.6-  

030803 215 (2.0-  0.0 )   030903 215  1.3-  0.3+    031005 213  0.1-  1.0-  

030803 215  1.3-  0.9-    030903 215  0.9-  0.6+    031006 785  1.5-  0.3+  

030803 J95  0.5+  0.7+    030904 235  1.5+  0.4+    031006 785 (0.2-  3.9-) 

030803 J95  0.5+  0.2-    030905 785  1.4+  0.0     031007 750  0.5+  0.5+  

030803 J95  0.8+  0.5+    030905 785  0.2-  0.0     031007 750  1.3-  0.5+  

030803 232 (3.0-  1.1-)   030905 H41  0.4-  0.4-    031007 750  0.3+  1.0+  

030803 232  0.9-  0.5+    030905 H41  0.7-  0.3-    031011 850 (0.1+  2.0+) 

030803 232  0.7-  0.3-    030905 048  0.3-  0.2+    031011 850  0.6+  0.1-  

030803 349  0.5-  0.7-    030905 A46  0.1+  0.3+    031011 850  0.3-  1.1-  

030803 349  0.2+  1.5-    030905 A46  0.7-  0.8-    031011 850  1.3+  1.1+  

030803 349  0.1+  1.3+    030905 A46  0.5-  0.5-    031015 H41  0.2+  0.8+  

030804 J95  1.2+  0.0     030905 048  0.8+  0.6+    031015 H41  0.4-  0.6+  

030804 J95  1.3+  0.8+    030906 048  0.4+  0.3+    031015 704  1.1-  0.7+  

030804 J95  1.4+  0.3+    030906 A46  0.3+  0.2+    031015 704  0.1+  0.1-  

030804 170 (2.2+  0.8+)   030906 A46  0.2-  0.4-    031015 704  1.0-  1.9-  

030804 170  0.3+  0.7-    030906 A46  0.0   0.0     031015 704  1.9-  1.5-  

030804 170  0.4-  0.6+    030906 048  0.7+  0.7+    031016 349  1.0-  0.1-  

030804 850  0.6+  1.3-    030906 048  1.9+  1.3+    031016 349  0.8-  0.1-  

030804 850  1.6-  0.6-    030906 048  0.9+  0.6+    031016 349  1.3-  0.2-  

030804 850  1.0-  0.5+    030906 166  1.0-  0.1-    031016 349  0.7-  0.4+  

030804 850 (8.2+  7.5+)   030906 166  1.4-  1.8-    031018 H41  0.8-  1.2-  

030804 850 (3.3-  0.7-)   030906 213  0.5+  0.1+    031018 H41  0.8-  0.2+  

030804 372  0.0   0.9+    030906 166  0.3+  0.3-    031019 H41  0.2-  0.7-  

030804 372  0.7-  0.4-    030906 213  0.3+  0.1+    031019 H41  0.3-  0.1-  

030805 A32  0.0   0.2+    030906 166  0.4+  0.2+    031019 367  0.8-  0.7+  

030805 A32  1.5-  0.0     030906 213 (2.0-  1.3-)   031019 367  0.5-  0.4-  

030805 A32  1.2-  0.1+    030906 048  0.6-  0.0     031019 367  0.6-  0.8-  

030805 A32  0.1+  0.1-    030906 048  0.5+  0.0     031019 360  0.5+  0.6+  

030805 246  0.1-  0.1+    030906 048  0.3-  0.9-    031019 360  0.4+  0.4+  

030805 246  0.1+  0.2+    030907 A46  0.2+  0.5-    031020 213  0.7-  0.6-  

030805 246  0.7+  0.2+    030907 A46  0.8-  0.7-    031020 213  0.3-  0.3+  

030805 246  0.3+  0.1-    030907 048  0.3+  0.6-    031020 213  0.2-  0.1-  

030805 246  0.4+  0.2+    030907 A46  0.0   0.2-    031021 H41  1.1+  0.5-  

030805 170  0.4-  0.2-    030907 A46  0.8-  0.6-    031021 H41  0.5-  1.1-  

030805 170  0.1-  0.1-    030907 048  0.4-  0.5-    031022 H41  0.7-  0.7-  

030805 170  0.0   0.6+    030907 A46  0.6-  0.6-    031022 H41  0.4-  0.1+  

030805 704 (2.4-  1.6-)   030907 A46  0.5-  0.5-    031023 750  0.5+  0.3+  

030805 704 (3.3-  2.3-)   030907 048  0.0   0.4-    031023 H41 (3.3-  1.0+) 

030805 704  1.9-  1.8-    030907 J95  0.7+  0.1+    031023 H41  1.5-  0.3-  

030805 704 (3.3-  1.6-)   030907 J95  0.9+  0.0     031023 H41  0.3-  0.1-  

030805 704 (5.3-  2.6-)   030907 J95  0.6+  0.2+    031024 H41  1.1-  0.8-  

030806 A46  0.6-  0.6-    030907 859 (4.0-  0.4-)   031024 H41  0.1-  0.7+  

030806 A32  0.2+  0.4+    030907 859 (2.6-  0.0 )   031024 A46  0.2-  0.4-  

